CZ-6A DEB, 60972

Orbit data source: Space-Track

CZ-6A DEB, 60972 is space debris in LEO originally from a launch on Tue, 06 Aug 2024 UTC launched from the Taiyaun Space Center, China (TSC). Debris objects in space refer to the collection of defunct objects orbiting the Earth. Examples of debris include non-operational satellites, rocket bodies, and fragments generated from explosions, collisions, or faulty payload assembly.

Loading next visibility...
Identifier
60972, 2024-140LX
Orbit
LEO
Country
Flag of CNCN / PRC
Related business
Manufacturer
SAST
Mission
Spacecraft
Bus & Motor
Unknown
Mass
Unknown
Launch date (UTC)
2024-08-06 (2 years ago)
Launch vehicle
Unknown
Launch site
Taiyaun Space Center, China (TSC)
Object type
Payload
Rocket body
Debris
Shape & HBR
Unknown shape, 0.1 m
Radar Cross Section
Medium (>0.1 m² and <1 m²)

Expand to show TLE details & history
Last TLE update: 14 hours ago

TLE from 14 hours ago
0 CZ-6A DEB
1 60972U 24140LX  26171.26761736  .00001184  00000-0  48865-3 0  9998
2 60972  88.9980 273.5733 0033380 182.6012 177.5013 14.25871725 95072
Epoch: 2026-06-20T06:25Z
TLE epoch observation values (Epoch: 2026-06-20T06:25:22.139Z)
Latitude
-0.00008°
Longitude
-91.25364°
Altitude
832.586 km
Speed
7.424 km/s
True Right ascension
18h 14m 17s
True Declination
0° 00' 00"
Sunlit
Object was in full shadow at epoch
Visualization orbit readout
Latitude
Unknown
Longitude
Unknown
Altitude
Unknown
Speed
Unknown
Apparent Right ascension
Unknown
Apparent Declination
Unknown
Sunlit
N/A
Visualization observer readout
Local Sidereal Time
07:19:16
Azimuth
Unknown
Elevation
Unknown
Doppler factor
Unknown
Orbital elements
Apogee altitude
826.475 km
Perigee altitude
778.537 km
Semi-major axis
7,180.643 km
Eccentricity
0.00334
Inclination
88.998°
RAAN
273.5733°
Arg. of periapsis
182.6012°
True anomaly
177.51791°
Mean anomaly
177.5013°
Eccentric anomaly
177.50961°
Mean motion
3.56696 °/min
Orbital period
100.93 mins
BSTAR
0.00048865
Loading maneuver chart data...
Computing Atmospheric mass density...
Loading historical data...
Loading historical data...
Loading historical data...
Loading historical data...
Loading historical data...
Loading historical data...
Loading historical data...

Documentation

Showing up to 5 results
|